Regional Weather Roundup
Issued by NWS

Home | Current Version | Previous Version | Text Only | Print | Product List | Glossary On
Versions: 1 2 3 4 5 6 7 8 9 10 11 12 13 14 15 16 17 18 19 20 21 22 23 24 25 26 27 28 29 30 31 32 33 34 35 36 37 38 39 40 41 42 43 44 45 46 47 48 49 50
000
ASUS42 KKEY 290310
RWRKEY

FLORIDA REGIONAL WEATHER ROUNDUP FOR THE FLORIDA KEYS
NATIONAL WEATHER SERVICE KEY WEST FLORIDA
1100 PM EDT THU MAY 28 2015

...SOUTH FLORIDA AND THE KEYS...

CITY           SKY/WX    TMP DP  RH WIND       PRES   REMARKS
FORT MYERS     CLEAR     76  61  59 E6        30.08R
SW REGIONAL AP PTCLDY    75  60  59 E10       30.09R
NAPLES         CLEAR     77  67  71 E9        30.08R
MIAMI          MOCLDY    79  63  57 NE7       30.08R
WEST KENDALL   CLOUDY    78  65  63 E12       30.08R
HOMESTEAD      PTCLDY    78  64  62 NE12      30.07R
MARATHON       PTCLDY    80  66  62 E12       30.05S
BOCA CHICA NAS PTCLDY    80  66  62 E16       30.05R
KEY WEST INTL  PTCLDY    79  67  66 E10       30.05R

...INTERNATIONAL WEATHER...

CITY           SKY/WX    TMP DP  RH WIND       PRES   REMARKS
NASSAU BAHAMAS PTCLDY    77  64  65 NE5       30.08S
CANCUN MEXICO  CLEAR     81  72  74 NE5       29.98R
COZUMEL MEXICO CLEAR     75  73  94 CALM      29.98R

ADJACENT COASTAL WATERS...

STATION/POSITION TIME  SKY/WX   TEMP    WIND        PRES    WAVE
                                AIR SEA DIR/SP/G            HT/PER
                 (UTC)          (F)     (DEG/KT/KT) (MB)    (FT/S)
PULASKI SHOAL LI 0200            81     100/ 15/ 17 1016.9R
SAND KEY         0250            80      90/ 19/ 21 1017.3R
SOMBRERO KEY     0300            80      80/ 19/ 20 1018.0R
LONG KEY         0200            80 81   80/ 17/ 19 1018.3R
MOLASSES REEF    0300            79 81   90/ 14/ 16 1018.0R
FOWEY ROCKS      NOT AVBL

$$


USA.gov is the U.S. government's official web portal to all federal, state and local government web resources and services.